Flag for Canada Weather past 2 weeks in Prince Rupert, British Columbia, Canada

Now
55 °F

Rain. Fog.


Feels Like: 55 °F
Forecast: 54 / 64 °F
Wind: 2 mph from North

Location: Prince Rupert

Current Time: Jul 28, 2015 at 8:16:54 PM

Latest Report: Jul 28, 2015 at 7:00 PM


Visibility: 4 mi

Pressure: 30.18 "Hg

Humidity: 94%

Dew point: 54 °F

Location of Prince RupertLocation

Historic Weather in Prince Rupert — Graph

°F

Prince Rupert temperature yesterday

Maximum temperature yesterday: 57 °F (at 12:02 AM)
Minimum temperature yesterday: 55 °F (at 1:02 AM)
Average temperature yesterday: 57 °F

Past Weeks' High & Low Weather Summary

 TemperatureHumidityPressure
High64 °F (Jul 20, 5:00 PM)100% (Jul 14, 6:57 AM)30.38 "Hg (Jul 14, 6:57 AM)
Low52 °F (Jul 15, 4:00 AM)64% (Jul 22, 5:00 PM)29.76 "Hg (Jul 23, 6:03 PM)
Average57 °F92%30.03 "Hg
* Reported Jul 13 7:00 PM — Jul 28 7:00 PM, Prince Rupert, Weather by CustomWeather, © 2015

Note: Actual official high and low records may vary slightly from our data, if they occured in-between our weather recording intervals... More about our weather records

Advertising

Prince Rupert weather history for previous 24 hours

 ConditionsComfort  
Time TempWeatherWind HumidityBarometerVisibility
7:00 PM
Tue, Jul 28
55 °FRain. Fog.2 mph94%30.18 "Hg4 mi
6:54 PM55 °FRain. Fog.No wind94%30.18 "Hg5 mi
6:00 PM55 °FMore clouds than sun.2 mph94%30.18 "Hg9 mi
5:00 PM57 °FLight rain. More clouds than sun.6 mph88%30.18 "Hg9 mi
4:00 PM59 °FLight rain. Mostly cloudy.5 mph88%30.17 "Hg9 mi
3:52 PM59 °FLight rain. Cloudy.5 mph82%30.17 "Hg9 mi
3:00 PM59 °FPartly sunny.5 mph82%30.16 "Hg9 mi
2:00 PM61 °FMostly cloudy.6 mph83%30.16 "Hg9 mi
1:00 PM59 °FCloudy.3 mph88%30.15 "Hg9 mi
12:00 PM61 °FPartly sunny.5 mph83%30.15 "Hg9 mi
11:00 AM59 °FMostly cloudy.3 mph88%30.14 "Hg9 mi
10:00 AM57 °FCloudy.3 mph94%30.14 "Hg9 mi
9:00 AM57 °FMostly cloudy.3 mph94%30.13 "Hg9 mi
8:00 AM57 °FMostly cloudy.3 mph94%30.12 "Hg9 mi
7:00 AM55 °FMore clouds than sun.5 mph100%30.11 "Hg9 mi
6:00 AM57 °FLight rain. Mostly cloudy.7 mph94%30.09 "Hg7 mi
5:59 AM57 °FLight rain. Fog.6 mph94%30.09 "Hg6 mi
5:01 AM57 °FHeavy rain. Fog.6 mph94%30.09 "Hg2 mi
4:03 AM57 °FOvercast.7 mph94%30.09 "Hg9 mi
3:00 AM57 °FLight rain. Fog.7 mph94%30.09 "Hg3 mi
2:56 AM57 °FLight rain. Fog.10 mph94%30.09 "Hg5 mi
2:01 AM57 °FLight rain. Overcast.12 mph94%30.09 "Hg9 mi
1:00 AM55 °FMostly cloudy.10 mph100%30.08 "Hg9 mi
12:00 AM57 °FLight rain. Fog.12 mph94%30.08 "Hg5 mi
11:56 PM
Mon, Jul 27
57 °FLight rain. Fog.13 mph94%30.08 "Hg5 mi
11:00 PM55 °FLight rain. Fog.10 mph100%30.08 "Hg2 mi
10:56 PM55 °FLight rain. Fog.10 mph100%30.08 "Hg2 mi
10:00 PM55 °FLight rain. Fog.14 mph100%30.08 "Hg2 mi
9:59 PM57 °FLight rain. Fog.13 mph94%30.08 "Hg2 mi
9:00 PM57 °FLight rain. Overcast.10 mph94%30.07 "Hg9 mi
8:00 PM57 °FOvercast.14 mph94%30.08 "Hg9 mi
Weather by CustomWeather, © 2015

See weather overviewHow to use our weather pages